Stations météo

réclame
Mon MeteoGroup
Rotterdam Zestienhoven, Pays-Bas (6344): Température de l'air & dewpoint: 17.10.2018 08:00:00 - 23.10.2018 08:00:00 (CEST)Rotterdam Zestienhoven, Pays-Bas (6344): Température de l'air 5cm: 17.10.2018 08:00:00 - 23.10.2018 08:00:00 (CEST)Rotterdam Zestienhoven, Pays-Bas (6344): Vitesse du vent & gusts: 17.10.2018 08:00:00 - 23.10.2018 08:00:00 (CEST)Rotterdam Zestienhoven, Pays-Bas (6344): Direction du vent: 17.10.2018 08:00:00 - 23.10.2018 08:00:00 (CEST)Rotterdam Zestienhoven, Pays-Bas (6344): reduced air pressure: 17.10.2018 08:00:00 - 23.10.2018 08:00:00 (CEST)Rotterdam Zestienhoven, Pays-Bas (6344): visibility: 17.10.2018 08:00:00 - 23.10.2018 08:00:00 (CEST)Rotterdam Zestienhoven, Pays-Bas (6344): Quantités de précipitations: 17.10.2018 08:00:00 - 23.10.2018 08:00:00 (CEST)
Date & Time tt [°C] td [°C] tt 5cm [°C] ff [km/h] ff [knt] fx [km/h] fx [knt] dd ppp [hPa] vv [km] rr [mm]
23.10.2018 08:00:00 12,0 8,0 - 24 13 - - W - 10 -
23.10.2018 07:00:00 11,6 7,9 10,8 22 12 43 23 W 1026,6 10 0,0
23.10.2018 06:00:00 11,8 8,2 11,1 22 12 36 19 W 1027,6 10 0,0
23.10.2018 05:00:00 11,6 7,3 10,8 26 14 43 23 W 1028,7 10 0,0
23.10.2018 04:00:00 11,5 7,2 9,9 21 11 32 18 W 1029,7 10 0,0
23.10.2018 03:00:00 9,5 5,9 6,5 16 9 22 12 WSW 1030,3 10 0,0
23.10.2018 02:00:00 5,3 3,1 2,4 11 6 14 8 SW 1031,7 10 0,0
23.10.2018 01:00:00 5,6 3,2 2,6 11 6 14 8 WSW 1033,1 10 0,0
23.10.2018 00:00:00 7,0 4,3 1,4 9 5 14 8 WSW 1033,8 10 0,0
22.10.2018 23:00:00 5,2 4,2 0,4 8 4 11 6 WSW 1034,6 10 0,0
22.10.2018 22:00:00 6,6 5,2 1,7 5 3 7 4 SW 1034,3 10 0,0
22.10.2018 21:00:00 6,0 4,5 1,9 2 1 7 4 W 1034,5 10 0,0
22.10.2018 20:00:00 8,4 5,4 4,7 2 1 7 4 WNW 1034,8 10 0,0
22.10.2018 19:00:00 9,0 4,9 5,3 8 4 14 8 NNW 1034,6 10 0,0
22.10.2018 18:00:00 11,5 4,5 10,5 15 8 25 14 N 1034,5 10 0,0
22.10.2018 17:00:00 13,1 4,8 13,3 18 10 29 16 N 1034,4 10 0,0
22.10.2018 16:00:00 13,5 6,4 13,0 16 9 29 16 N 1033,8 10 0,0
22.10.2018 15:00:00 14,4 6,9 14,3 22 12 32 18 N 1033,9 10 0,0
22.10.2018 14:00:00 14,2 7,3 14,8 15 8 29 16 N 1033,7 10 0,0
22.10.2018 13:00:00 14,7 7,3 14,8 18 10 32 18 N 1033,7 10 0,0
22.10.2018 12:00:00 14,3 8,0 15,3 18 10 32 18 NNE 1033,4 10 0,0
22.10.2018 11:00:00 13,3 7,5 13,1 13 7 22 12 N 1033,1 10 0,0
22.10.2018 10:00:00 12,7 9,1 12,1 9 5 18 10 N 1032,3 10 0,0
22.10.2018 09:00:00 12,5 9,1 11,7 11 6 22 12 N 1031,4 10 0,0
22.10.2018 08:00:00 12,6 10,5 12,0 13 7 25 14 N 1030,3 10 0,0
22.10.2018 07:00:00 12,5 12,1 12,4 15 8 29 16 N 1029,6 3,6 0,8
22.10.2018 06:00:00 12,9 12,5 12,6 11 6 18 10 N 1029,0 10 0,0
22.10.2018 05:00:00 12,9 12,3 12,8 11 6 32 18 N 1028,4 5 0,0
22.10.2018 04:00:00 13,6 12,4 13,4 16 9 32 18 N 1027,9 10 0,0
22.10.2018 03:00:00 13,9 13,3 13,7 16 9 36 19 N 1027,3 4,0 0,0
22.10.2018 02:00:00 13,8 12,9 13,1 5 3 11 6 WNW 1027,1 6 0,0
22.10.2018 01:00:00 13,5 12,3 12,6 5 3 14 8 W 1026,9 5 0,0
22.10.2018 00:00:00 11,6 10,3 7,3 8 4 11 6 SW 1026,7 6 0,0
21.10.2018 23:00:00 10,2 8,9 5,3 8 4 11 6 SW 1026,5 9 0,0
21.10.2018 22:00:00 10,7 9,7 7,8 2 1 4 2 - 1026,4 10 0,0
21.10.2018 21:00:00 10,3 8,6 7,0 4 2 11 6 - 1026,6 10 0,0
21.10.2018 20:00:00 11,2 8,0 8,3 8 4 18 10 S 1026,3 10 0,0
21.10.2018 19:00:00 13,1 8,5 11,3 11 6 22 12 SSW 1026,2 10 0,0
21.10.2018 18:00:00 15,3 9,1 14,8 11 6 25 14 S 1026,2 10 0,0
21.10.2018 17:00:00 15,4 8,8 15,2 13 7 25 14 S 1026,6 10 0,0
21.10.2018 16:00:00 15,9 8,9 16,6 11 6 22 12 SW 1027,0 10 0,0
21.10.2018 15:00:00 15,6 8,7 16,6 16 9 22 12 S 1027,4 10 0,0
21.10.2018 14:00:00 15,6 9,5 16,6 13 7 25 14 S 1027,8 10 0,0
21.10.2018 13:00:00 15,1 8,9 15,9 13 7 25 14 S 1028,3 10 0,0
21.10.2018 12:00:00 14,0 8,7 14,6 13 7 18 10 S 1029,0 10 0,0
21.10.2018 11:00:00 13,1 8,6 13,2 11 6 22 12 S 1029,1 10 0,0
21.10.2018 10:00:00 12,2 8,1 12,2 9 5 22 12 S 1028,9 10 0,0
21.10.2018 09:00:00 11,5 8,7 10,9 8 4 11 6 S 1028,8 10 0,0
21.10.2018 08:00:00 10,7 8,4 8,6 9 5 25 14 S 1028,7 10 0,0
21.10.2018 07:00:00 11,4 8,4 10,6 9 5 14 8 S 1028,9 10 0,0
21.10.2018 06:00:00 11,9 8,6 11,3 11 6 18 10 SSW 1029,0 10 0,0
21.10.2018 05:00:00 12,0 8,7 11,1 11 6 18 10 S 1029,1 10 0,0
21.10.2018 04:00:00 11,8 9,1 10,9 8 4 14 8 SSW 1029,6 10 0,0
21.10.2018 03:00:00 11,5 10,1 10,6 8 4 11 6 S 1029,8 10 0,0
21.10.2018 02:00:00 11,3 10,1 9,9 8 4 11 6 S 1030,0 9 0,0
21.10.2018 01:00:00 8,1 8,0 6,4 0 0 4 2 N 1030,6 10 0,0
21.10.2018 00:00:00 7,0 7,0 3,1 2 1 7 4 SSE 1031,1 5 0,0
20.10.2018 23:00:00 8,3 8,2 3,3 5 3 7 4 SSE 1030,8 8 0,0
20.10.2018 22:00:00 8,6 8,6 3,6 4 2 4 2 SSE 1031,1 6 0,0
20.10.2018 21:00:00 8,8 8,4 3,5 2 1 7 4 SSW 1031,2 10 0,0
20.10.2018 20:00:00 9,2 8,8 3,9 4 2 7 4 W 1031,0 10 0,0
20.10.2018 19:00:00 10,5 8,9 6,6 5 3 7 4 W 1030,9 10 0,0
20.10.2018 18:00:00 13,5 9,3 12,7 5 3 14 8 W 1030,8 10 0,0
20.10.2018 17:00:00 15,2 10,5 15,5 9 5 18 10 W 1030,7 10 0,0
20.10.2018 16:00:00 15,2 9,1 16,8 8 4 14 8 W 1031,1 10 0,0
20.10.2018 15:00:00 15,8 9,0 18,2 5 3 14 8 - 1031,2 10 0,0
20.10.2018 14:00:00 14,7 8,5 15,4 9 5 18 10 SW 1031,4 10 0,0
20.10.2018 13:00:00 14,7 8,6 16,0 9 5 14 8 WSW 1032,0 10 0,0
20.10.2018 12:00:00 13,7 7,9 14,5 9 5 14 8 SSW 1031,8 10 0,0
20.10.2018 11:00:00 12,0 8,9 11,9 5 3 14 8 S 1031,5 6 0,0
20.10.2018 10:00:00 9,7 8,9 8,9 2 1 4 2 - 1031,3 9 0,0
20.10.2018 09:00:00 6,7 6,7 4,9 5 3 7 4 SSE 1030,9 9 0,0
20.10.2018 08:00:00 5,7 5,4 3,3 4 2 4 2 SSE 1030,0 9 0,0
20.10.2018 07:00:00 5,4 5,4 1,7 2 1 4 2 SSE 1030,0 10 0,0
20.10.2018 06:00:00 5,3 5,3 1,8 2 1 4 2 - 1029,7 6 0,0
20.10.2018 05:00:00 4,4 4,3 1,3 0 0 4 2 N 1028,9 10 0,0
20.10.2018 04:00:00 3,4 3,4 1,0 0 0 4 2 N 1028,7 0,3 0,0
20.10.2018 03:00:00 4,6 4,5 0,2 2 1 4 2 - 1028,6 0,9 0,0
20.10.2018 02:00:00 4,3 4,3 0,4 4 2 4 2 NW 1028,7 1,4 0,0
20.10.2018 01:00:00 3,8 3,7 1,5 4 2 7 4 - 1028,0 2,7 0,0
20.10.2018 00:00:00 6,4 6,4 0,8 2 1 7 4 WSW 1028,1 2,4 0,0
19.10.2018 23:00:00 6,0 5,6 2,9 4 2 7 4 - 1027,9 10 0,0
19.10.2018 22:00:00 8,6 7,5 4,9 4 2 7 4 E 1027,6 10 0,0
19.10.2018 21:00:00 7,5 6,8 3,1 2 1 7 4 - 1027,0 10 0,0
19.10.2018 20:00:00 9,5 7,3 4,8 8 4 11 6 N 1026,4 10 0,0
19.10.2018 19:00:00 10,8 7,6 9,6 9 5 14 8 N 1025,8 10 0,0
19.10.2018 18:00:00 12,0 8,1 11,3 8 4 11 6 NNW 1025,6 10 0,0
19.10.2018 17:00:00 14,2 8,0 14,5 9 5 18 10 NNE 1025,0 10 0,0
19.10.2018 16:00:00 15,1 8,4 16,4 8 4 18 10 NE 1025,0 10 0,0
19.10.2018 15:00:00 15,1 8,4 17,0 9 5 14 8 NE 1025,2 10 0,0
19.10.2018 14:00:00 14,4 8,4 16,5 13 7 22 12 NE 1025,4 10 0,0
19.10.2018 13:00:00 13,7 8,7 15,9 9 5 14 8 NE 1025,7 10 0,0
19.10.2018 12:00:00 12,6 9,1 14,2 9 5 14 8 ENE 1026,1 10 0,0
19.10.2018 11:00:00 11,1 8,4 12,3 11 6 14 8 ENE 1025,8 10 0,0
19.10.2018 10:00:00 9,6 7,7 9,7 9 5 14 8 NE 1026,1 10 0,0
19.10.2018 09:00:00 7,6 6,0 5,8 8 4 11 6 NE 1026,0 10 0,0
19.10.2018 08:00:00 6,8 5,7 4,8 9 5 14 8 NE 1025,7 10 0,0
19.10.2018 07:00:00 7,2 6,0 5,7 9 5 11 6 NE 1025,7 10 0,0
19.10.2018 06:00:00 6,4 5,5 5,1 8 4 11 6 NE 1025,6 10 0,0
19.10.2018 05:00:00 7,4 5,9 4,5 5 3 11 6 NE 1025,8 10 0,0
19.10.2018 04:00:00 7,1 5,7 3,4 8 4 18 10 NE 1025,8 10 0,0
19.10.2018 03:00:00 8,1 6,2 6,5 11 6 18 10 NE 1025,8 10 0,0
19.10.2018 02:00:00 7,8 6,7 5,0 11 6 14 8 ENE 1026,0 10 0,0
19.10.2018 01:00:00 7,1 6,3 4,1 8 4 11 6 ENE 1026,1 10 0,0
19.10.2018 00:00:00 8,3 7,2 4,7 5 3 11 6 NE 1026,1 10 0,0
18.10.2018 23:00:00 8,7 7,3 6,3 11 6 14 8 NE 1026,1 10 0,0
18.10.2018 22:00:00 10,7 8,3 8,6 8 4 11 6 NNE 1026,1 10 0,0
18.10.2018 21:00:00 11,1 8,2 7,6 5 3 7 4 NNE 1025,9 10 0,0
18.10.2018 20:00:00 11,4 8,2 7,9 5 3 11 6 NNE 1025,6 10 0,0
18.10.2018 19:00:00 11,9 8,0 9,2 9 5 22 12 NE 1025,3 10 0,0
18.10.2018 18:00:00 13,9 7,9 12,9 13 7 25 14 NE 1025,0 10 0,0
18.10.2018 17:00:00 14,6 8,6 13,7 16 9 29 16 NE 1025,2 10 0,0
18.10.2018 16:00:00 15,6 8,4 14,7 18 10 29 16 NE 1025,3 10 0,0
18.10.2018 15:00:00 15,8 8,6 15,6 18 10 29 16 NNE 1025,4 10 0,0
18.10.2018 14:00:00 16,2 9,7 16,7 16 9 32 18 NNE 1025,3 10 0,0
18.10.2018 13:00:00 15,8 9,8 16,2 18 10 29 16 NE 1025,6 10 0,0
18.10.2018 12:00:00 15,2 10,0 15,8 21 11 29 16 NNE 1025,8 10 0,0
18.10.2018 11:00:00 14,5 10,6 15,0 18 10 29 16 NNE 1025,4 10 0,0
18.10.2018 10:00:00 13,8 11,1 13,9 13 7 22 12 N 1025,1 10 0,0
18.10.2018 09:00:00 13,0 11,1 12,4 8 4 18 10 N 1024,7 10 0,0
18.10.2018 08:00:00 13,3 11,1 12,7 9 5 18 10 NNE 1024,0 10 0,0
18.10.2018 07:00:00 13,5 11,1 12,9 11 6 18 10 NNE 1023,6 10 0,0
18.10.2018 06:00:00 13,3 9,9 12,2 16 9 25 14 NE 1023,6 10 0,0
18.10.2018 05:00:00 12,3 12,2 11,8 5 3 11 6 N 1023,3 2,7 0,1
18.10.2018 04:00:00 10,4 10,4 10,1 5 3 7 4 NW 1023,1 7 0,0
18.10.2018 03:00:00 9,7 9,7 6,4 0 0 4 2 N 1023,0 2,3 0,0
18.10.2018 02:00:00 8,8 8,8 6,8 5 3 7 4 WNW 1023,0 1,9 0,0
18.10.2018 01:00:00 8,8 8,8 5,2 2 1 4 2 W 1022,7 4,2 0,0
18.10.2018 00:00:00 9,9 9,9 4,8 2 1 4 2 W 1022,4 7 0,0
17.10.2018 23:00:00 10,2 10,0 5,6 2 1 4 2 WNW 1022,0 5 0,0
17.10.2018 22:00:00 11,4 10,8 6,7 0 0 4 2 N 1021,8 10 0,0
17.10.2018 21:00:00 11,6 10,9 7,4 2 1 7 4 WNW 1021,3 10 0,0
17.10.2018 20:00:00 12,1 10,8 6,8 4 2 7 4 WNW 1020,8 10 0,0
17.10.2018 19:00:00 13,1 10,7 10,6 5 3 11 6 WNW 1020,4 10 0,0
17.10.2018 18:00:00 15,9 11,9 15,6 11 6 18 10 WNW 1020,1 10 0,0
17.10.2018 17:00:00 17,5 12,5 17,7 13 7 18 10 WNW 1019,8 10 0,0
17.10.2018 16:00:00 17,8 13,1 18,9 11 6 22 12 WNW 1019,6 10 0,0
17.10.2018 15:00:00 18,0 13,7 18,6 11 6 22 12 W 1019,5 10 0,0
17.10.2018 14:00:00 18,3 13,5 19,3 9 5 18 10 W 1019,3 10 0,0
17.10.2018 13:00:00 18,2 13,5 19,9 9 5 18 10 SW 1019,4 10 0,0
17.10.2018 12:00:00 17,7 14,3 18,8 8 4 18 10 W 1019,5 10 0,0
17.10.2018 11:00:00 17,4 14,9 18,3 4 2 11 6 - 1019,3 10 0,0
17.10.2018 10:00:00 16,3 14,3 16,5 5 3 7 4 SW 1019,1 9 0,0
17.10.2018 09:00:00 13,3 13,3 9,1 2 1 7 4 SW 1018,9 1,1 0,0
17.10.2018 08:00:00 12,1 12,1 7,4 5 3 11 6 WSW 1018,5 2,4 0,0

tt = Température de l'air
td = dewpoint
tt 5cm = Température de l'air 5cm
ff = Vitesse du vent
fx = gusts
dd = Direction du vent
ppp = reduced air pressure
vv = visibility
rr = Quantités de précipitations

stations d'obs. à proximité